Mattoon, IL

6:00 AM CST on November 13, 2019 (GMT -0600)
Coles County Memorial

Weather History for KMTO - October, 2019

Change the Weather History Date:

Monday, October 21, 2019

  Actual Average Record
Temperature  
Mean Temperature 58 °F 53 °F  
Max Temperature 65 °F 64 °F 86 °F (1953)
Min Temperature 51 °F 43 °F 20 °F (1952)
Degree Days  
Heating Degree Days 7 12  
Month to date heating degree days 173 195  
Since 1 July heating degree days 173 266  
Cooling Degree Days 0 0  
Month to date cooling degree days 34 15  
Year to date cooling degree days 1256 1053  
Growing Degree Days 9 (Base 50)    
Moisture  
Dew Point 55 °F    
Average Humidity 79    
Maximum Humidity 100    
Minimum Humidity 57    
Precipitation  
Precipitation 0.26 in 0.10 in 2.05 in (1983)
Month to date precipitation 3.56 1.91  
Year to date precipitation 29.70 30.88  
Sea Level Pressure  
Sea Level Pressure 29.61 in    
Wind  
Wind Speed 12 mph (South)    
Max Wind Speed 25 mph    
Max Gust Speed 36 mph    
Visibility 9 miles    
Events Rain , Thunderstorm    
T = Trace of Precipitation, MM = Missing Value Source: NWS Daily Summary

Daily Weather History Graph

Daily Weather History Graph

Search for Another Location

Airport or City:

Astronomy

Oct. 21, 2019 Rise Set
Actual Time 7:09 AM CDT 6:05 PM CDT
Civil Twilight 6:41 AM CDT 6:33 PM CDT
Nautical Twilight 6:10 AM CDT 7:04 PM CDT
Astronomical Twilight 5:39 AM CDT 7:35 PM CDT
Moon No Moon Rise 2:26 PM CDT (10/21)
Length of Visible Light 11h 51m
Length of Day
10h 56m
Waning Gibbous, 48% of the Moon is Illuminated
Oct 21
Waning Gibbous
Oct 27
New
Nov 4
First Quarter
Nov 12
Full
Nov 19
Last Quarter

Hourly Weather History & Observations

Time (CDT) Temp. Dew Point Humidity Pressure Visibility Wind Dir Wind Speed Gust Speed Precip Events Conditions
12:53 AM 57.9 °F 51.1 °F 78% 29.77 in 10.0 mi SE 9.2 mph - N/A   Scattered Clouds
1:53 AM 59.0 °F 52.0 °F 78% 29.76 in 10.0 mi SE 9.2 mph - N/A   Mostly Cloudy
2:53 AM 57.9 °F 52.0 °F 81% 29.74 in 10.0 mi SE 9.2 mph - N/A   Scattered Clouds
3:53 AM 59.0 °F 52.0 °F 78% 29.69 in 10.0 mi SE 11.5 mph - N/A   Mostly Cloudy
4:53 AM 59.0 °F 53.1 °F 81% 29.63 in 10.0 mi SE 13.8 mph 21.9 mph N/A   Partly Cloudy
5:53 AM 59.0 °F 55.0 °F 87% 29.64 in 9.0 mi SE 18.4 mph 26.5 mph 0.00 in Rain Rain
6:02 AM 59.0 °F 55.0 °F 87% 29.64 in 7.0 mi SE 12.7 mph 25.3 mph 0.01 in Rain , Thunderstorm Thunderstorms and Rain
6:19 AM 57.9 °F 55.9 °F 93% 29.65 in 1.8 mi SSE 15.0 mph 24.2 mph 0.15 in Rain , Thunderstorm Heavy Thunderstorms and Rain
6:26 AM 57.9 °F 55.9 °F 93% 29.65 in 3.0 mi SE 16.1 mph 23.0 mph 0.18 in Rain , Thunderstorm Heavy Thunderstorms and Rain
6:38 AM 57.9 °F 57.0 °F 97% 29.63 in 5.0 mi SE 13.8 mph - 0.21 in Rain , Thunderstorm Rain
6:53 AM 57.9 °F 57.0 °F 97% 29.61 in 9.0 mi SE 16.1 mph 26.5 mph 0.22 in Rain Light Rain
7:27 AM 59.0 °F 57.9 °F 96% 29.60 in 8.0 mi SE 20.7 mph 27.6 mph 0.00 in Rain Rain
7:43 AM 59.0 °F 57.9 °F 96% 29.59 in 6.0 mi SE 19.6 mph 28.8 mph 0.01 in Rain Rain
7:53 AM 59.0 °F 59.0 °F 100% 29.59 in 5.0 mi SE 18.4 mph 29.9 mph 0.02 in Rain Rain
8:53 AM 60.1 °F 60.1 °F 100% 29.55 in 10.0 mi SSE 20.7 mph 34.5 mph 0.00 in Rain Light Rain
9:05 AM 60.1 °F 59.0 °F 96% 29.53 in 10.0 mi SSE 23.0 mph 35.7 mph 0.00 in Rain Light Rain
9:53 AM 61.0 °F 57.9 °F 90% 29.48 in 10.0 mi SSE 18.4 mph 35.7 mph 0.00 in   Scattered Clouds
10:15 AM 62.1 °F 57.9 °F 86% 29.55 in 10.0 mi South 15.0 mph 23.0 mph N/A   Mostly Cloudy
10:53 AM 62.1 °F 59.0 °F 90% 29.56 in 10.0 mi South 12.7 mph 24.2 mph N/A   Overcast
11:53 AM 63.0 °F 59.0 °F 87% 29.54 in 10.0 mi South 13.8 mph 31.1 mph N/A   Overcast
12:05 PM 63.0 °F 59.0 °F 87% 29.55 in 10.0 mi South 17.3 mph 32.2 mph N/A   Overcast
12:53 PM 62.1 °F 59.0 °F 90% 29.56 in 4.0 mi South 17.3 mph 24.2 mph 0.01 in Rain Light Rain
1:36 PM 62.1 °F 60.1 °F 93% 29.56 in 10.0 mi South 13.8 mph 20.7 mph 0.01 in   Overcast
1:53 PM 62.1 °F 60.1 °F 93% 29.55 in 10.0 mi South 11.5 mph 26.5 mph 0.01 in Rain Light Rain
2:21 PM 62.1 °F 61.0 °F 96% 29.55 in 10.0 mi SSW 9.2 mph - 0.00 in   Overcast
2:53 PM 63.0 °F 59.0 °F 87% 29.55 in 10.0 mi South 11.5 mph 25.3 mph 0.00 in   Mostly Cloudy
3:03 PM 63.0 °F 59.0 °F 87% 29.55 in 10.0 mi South 13.8 mph 24.2 mph N/A   Mostly Cloudy
3:26 PM 64.0 °F 57.9 °F 80% 29.55 in 10.0 mi SSW 15.0 mph 28.8 mph N/A   Mostly Cloudy
3:33 PM 64.9 °F 57.9 °F 78% 29.55 in 10.0 mi South 18.4 mph 28.8 mph N/A   Scattered Clouds
3:53 PM 64.9 °F 57.0 °F 75% 29.55 in 10.0 mi South 19.6 mph 31.1 mph N/A   Scattered Clouds
4:04 PM 64.9 °F 57.0 °F 75% 29.56 in 10.0 mi South 16.1 mph 24.2 mph N/A   Mostly Cloudy
4:14 PM 64.9 °F 57.0 °F 75% 29.56 in 10.0 mi South 15.0 mph 26.5 mph N/A   Scattered Clouds
4:53 PM 64.9 °F 57.0 °F 75% 29.56 in 10.0 mi South 10.4 mph 21.9 mph N/A   Partly Cloudy
5:53 PM 64.0 °F 55.9 °F 75% 29.59 in 10.0 mi SSW 9.2 mph 20.7 mph N/A   Mostly Cloudy
6:53 PM 57.9 °F 44.1 °F 60% 29.64 in 10.0 mi West 6.9 mph - N/A   Partly Cloudy
7:53 PM 57.0 °F 42.1 °F 57% 29.67 in 10.0 mi WSW 4.6 mph - N/A   Clear
8:53 PM 55.0 °F 42.1 °F 62% 29.69 in 10.0 mi Variable 4.6 mph - N/A   Clear
9:53 PM 54.0 °F 41.0 °F 62% 29.70 in 10.0 mi SW 5.8 mph - N/A   Partly Cloudy
10:53 PM 54.0 °F 39.9 °F 59% 29.71 in 10.0 mi SSW 10.4 mph 17.3 mph N/A   Clear
11:53 PM 53.1 °F 39.9 °F 61% 29.72 in 10.0 mi SSW 8.1 mph - N/A   Clear